TimeCST,TemperatureF,Dew PointF,Humidity,Sea Level PressureIn,VisibilityMPH,Wind Direction,Wind SpeedMPH,Gust SpeedMPH,PrecipitationIn,Events,Conditions,WindDirDegrees,DateUTC
12:55 AM,55.4,55.4,100,29.92,5.0,NNW,9.2,-,N/A,Rain,Light Rain,340,2013-02-08 06:55:00
1:55 AM,55.4,53.6,94,29.94,10.0,North,10.4,-,N/A,,Overcast,350,2013-02-08 07:55:00
2:15 AM,53.6,53.6,100,29.95,5.0,North,12.7,-,N/A,,Overcast,350,2013-02-08 08:15:00
2:35 AM,51.8,51.8,100,29.97,3.0,North,17.3,-,N/A,,Overcast,350,2013-02-08 08:35:00
2:55 AM,51.8,50.0,94,29.98,-9999.0,North,17.3,-,N/A,,Overcast,360,2013-02-08 08:55:00
3:35 AM,48.2,46.4,93,29.99,9.0,North,16.1,-,N/A,,Overcast,10,2013-02-08 09:35:00
3:55 AM,48.2,44.6,87,30.00,8.0,North,13.8,-,N/A,,Overcast,360,2013-02-08 09:55:00
4:15 AM,48.2,44.6,87,30.01,10.0,North,13.8,-,N/A,,Overcast,360,2013-02-08 10:15:00
4:35 AM,48.2,44.6,87,30.02,10.0,North,11.5,-,N/A,,Overcast,350,2013-02-08 10:35:00
4:55 AM,46.4,42.8,87,30.04,10.0,North,13.8,-,N/A,,Overcast,360,2013-02-08 10:55:00
5:55 AM,44.6,42.8,93,30.08,7.0,North,16.1,-,N/A,Rain,Light Rain,360,2013-02-08 11:55:00
6:55 AM,44.6,39.2,81,30.13,10.0,North,15.0,-,N/A,,Overcast,360,2013-02-08 12:55:00
7:55 AM,42.8,37.4,81,30.17,10.0,North,16.1,-,N/A,,Overcast,10,2013-02-08 13:55:00
8:55 AM,42.8,37.4,81,30.20,10.0,NNE,15.0,-,N/A,,Overcast,20,2013-02-08 14:55:00
9:55 AM,42.8,37.4,81,30.24,10.0,North,12.7,-,N/A,,Overcast,360,2013-02-08 15:55:00
10:55 AM,42.8,35.6,76,30.27,10.0,North,17.3,-,N/A,,Overcast,10,2013-02-08 16:55:00
11:55 AM,42.8,35.6,76,30.27,10.0,North,13.8,-,N/A,,Overcast,10,2013-02-08 17:55:00
12:55 PM,42.8,35.6,76,30.27,10.0,North,11.5,-,N/A,,Overcast,360,2013-02-08 18:55:00
1:55 PM,44.6,35.6,71,30.26,8.0,North,9.2,-,N/A,,Overcast,10,2013-02-08 19:55:00
2:55 PM,42.8,35.6,76,30.26,8.0,North,9.2,-,N/A,,Overcast,10,2013-02-08 20:55:00
3:55 PM,41.0,33.8,76,30.28,8.0,NNE,6.9,-,N/A,,Overcast,20,2013-02-08 21:55:00
4:55 PM,39.2,33.8,81,30.30,10.0,North,8.1,-,N/A,,Overcast,10,2013-02-08 22:55:00
5:55 PM,39.2,33.8,81,30.30,10.0,North,6.9,-,N/A,,Overcast,10,2013-02-08 23:55:00
6:55 PM,37.4,30.2,75,30.29,10.0,NE,9.2,-,N/A,,Overcast,40,2013-02-09 00:55:00
7:55 PM,37.4,30.2,75,30.32,10.0,Calm,Calm,-,N/A,,Overcast,0,2013-02-09 01:55:00
8:55 PM,35.6,30.2,81,30.32,10.0,Calm,Calm,-,N/A,,Partly Cloudy,0,2013-02-09 02:55:00
9:55 PM,33.8,30.2,87,30.32,10.0,North,3.5,-,N/A,,Partly Cloudy,360,2013-02-09 03:55:00
10:55 PM,33.8,30.2,87,30.29,10.0,NNE,4.6,-,N/A,,Clear,30,2013-02-09 04:55:00
11:55 PM,33.8,30.2,87,30.30,10.0,NNE,4.6,-,N/A,,Clear,20,2013-02-09 05:55:00